TimeCST,TemperatureF,Dew PointF,Humidity,Sea Level PressureIn,VisibilityMPH,Wind Direction,Wind SpeedMPH,Gust SpeedMPH,PrecipitationIn,Events,Conditions,WindDirDegrees,DateUTC
12:14 AM,14.0,10.4,86,29.90,10.0,North,18.4,21.9,N/A,,Clear,360,2013-12-19 06:14:00
12:34 AM,14.0,10.4,86,29.90,10.0,North,16.1,21.9,N/A,,Scattered Clouds,360,2013-12-19 06:34:00
12:54 AM,14.0,10.4,86,29.91,10.0,North,19.6,25.3,N/A,,Overcast,360,2013-12-19 06:54:00
1:14 AM,12.2,8.6,85,29.91,10.0,North,18.4,21.9,N/A,,Scattered Clouds,360,2013-12-19 07:14:00
1:34 AM,12.2,8.6,85,29.91,10.0,North,15.0,24.2,N/A,,Mostly Cloudy,10,2013-12-19 07:34:00
1:54 AM,12.2,8.6,85,29.92,10.0,North,15.0,21.9,N/A,,Overcast,360,2013-12-19 07:54:00
2:14 AM,10.4,6.8,85,29.93,10.0,NNE,19.6,25.3,N/A,,Overcast,20,2013-12-19 08:14:00
2:34 AM,10.4,6.8,85,29.96,10.0,North,16.1,23.0,N/A,,Overcast,10,2013-12-19 08:34:00
2:54 AM,10.4,6.8,85,29.98,10.0,North,17.3,23.0,N/A,,Overcast,360,2013-12-19 08:54:00
3:14 AM,8.6,5.0,85,29.99,10.0,North,16.1,20.7,N/A,,Overcast,360,2013-12-19 09:14:00
3:34 AM,8.6,5.0,85,29.99,10.0,North,17.3,20.7,N/A,,Overcast,10,2013-12-19 09:34:00
3:54 AM,6.8,3.2,85,29.98,10.0,North,16.1,-,N/A,,Mostly Cloudy,10,2013-12-19 09:54:00
4:14 AM,6.8,3.2,85,29.98,10.0,North,16.1,25.3,N/A,,Scattered Clouds,10,2013-12-19 10:14:00
4:34 AM,6.8,1.4,79,30.00,10.0,North,17.3,-,N/A,,Scattered Clouds,360,2013-12-19 10:34:00
4:54 AM,5.0,1.4,85,30.01,10.0,North,15.0,20.7,N/A,,Scattered Clouds,10,2013-12-19 10:54:00
5:14 AM,5.0,1.4,85,30.01,10.0,North,15.0,-,N/A,,Clear,10,2013-12-19 11:14:00
5:34 AM,3.2,-0.4,85,30.02,10.0,North,15.0,18.4,N/A,,Clear,10,2013-12-19 11:34:00
5:54 AM,3.2,-0.4,85,30.03,10.0,North,12.7,-,N/A,,Scattered Clouds,10,2013-12-19 11:54:00
6:14 AM,3.2,-0.4,85,30.03,10.0,North,10.4,19.6,N/A,,Scattered Clouds,10,2013-12-19 12:14:00
6:33 AM,3.2,-0.4,85,30.03,10.0,North,10.4,-,N/A,,Scattered Clouds,10,2013-12-19 12:33:00
6:54 AM,3.2,-0.4,85,30.03,10.0,North,10.4,-,N/A,,Scattered Clouds,10,2013-12-19 12:54:00
7:14 AM,3.2,-0.4,85,30.04,10.0,North,10.4,-,N/A,,Clear,10,2013-12-19 13:14:00
7:34 AM,3.2,-0.4,85,30.05,10.0,North,10.4,-,N/A,,Clear,360,2013-12-19 13:34:00
7:54 AM,3.2,-0.4,85,30.05,10.0,North,13.8,-,N/A,,Clear,360,2013-12-19 13:54:00
8:14 AM,3.2,-0.4,85,30.05,10.0,North,12.7,-,N/A,,Clear,360,2013-12-19 14:14:00
8:34 AM,3.2,-0.4,85,30.05,10.0,North,12.7,-,N/A,,Clear,10,2013-12-19 14:34:00
8:54 AM,5.0,-0.4,78,30.07,10.0,North,12.7,-,N/A,,Clear,360,2013-12-19 14:54:00
9:14 AM,5.0,1.4,85,30.07,10.0,North,12.7,-,N/A,,Clear,10,2013-12-19 15:14:00
9:34 AM,5.0,-0.4,78,30.08,10.0,North,11.5,-,N/A,,Clear,10,2013-12-19 15:34:00
9:54 AM,6.8,1.4,79,30.09,10.0,North,11.5,17.3,N/A,,Clear,10,2013-12-19 15:54:00
10:14 AM,6.8,1.4,79,30.10,10.0,North,12.7,-,N/A,,Clear,360,2013-12-19 16:14:00
10:34 AM,6.8,1.4,79,30.10,10.0,North,12.7,-,N/A,,Clear,10,2013-12-19 16:34:00
10:54 AM,8.6,3.2,79,30.10,10.0,NNE,13.8,-,N/A,,Clear,20,2013-12-19 16:54:00
11:14 AM,8.6,3.2,79,30.10,10.0,NNE,17.3,-,N/A,,Clear,20,2013-12-19 17:14:00
11:34 AM,8.6,3.2,79,30.09,10.0,NNE,17.3,-,N/A,,Scattered Clouds,20,2013-12-19 17:34:00
11:54 AM,8.6,3.2,79,30.08,10.0,NNE,12.7,-,N/A,,Scattered Clouds,30,2013-12-19 17:54:00
12:14 PM,10.4,5.0,79,30.06,10.0,NNE,12.7,-,N/A,,Scattered Clouds,20,2013-12-19 18:14:00
12:34 PM,10.4,5.0,79,30.05,10.0,NNE,13.8,-,N/A,,Mostly Cloudy,20,2013-12-19 18:34:00
12:54 PM,10.4,6.8,85,30.05,10.0,NNE,10.4,-,N/A,,Scattered Clouds,20,2013-12-19 18:54:00
1:14 PM,12.2,8.6,85,30.05,10.0,NE,17.3,-,N/A,,Mostly Cloudy,50,2013-12-19 19:14:00
1:34 PM,12.2,6.8,79,30.04,10.0,NE,18.4,-,N/A,,Scattered Clouds,50,2013-12-19 19:34:00
1:54 PM,12.2,6.8,79,30.04,10.0,NE,19.6,25.3,N/A,,Mostly Cloudy,50,2013-12-19 19:54:00
2:14 PM,12.2,6.8,79,30.04,10.0,NE,20.7,25.3,N/A,,Overcast,40,2013-12-19 20:14:00
2:34 PM,12.2,6.8,79,30.04,10.0,NE,19.6,25.3,N/A,,Overcast,40,2013-12-19 20:34:00
2:54 PM,12.2,6.8,79,30.03,10.0,NE,20.7,-,N/A,,Overcast,40,2013-12-19 20:54:00
3:14 PM,12.2,6.8,79,30.01,10.0,NE,23.0,27.6,N/A,,Overcast,50,2013-12-19 21:14:00
3:34 PM,10.4,6.8,85,30.02,10.0,NE,20.7,27.6,N/A,,Overcast,40,2013-12-19 21:34:00
3:54 PM,10.4,6.8,85,30.02,10.0,NE,24.2,-,N/A,,Overcast,40,2013-12-19 21:54:00
4:14 PM,10.4,5.0,79,30.03,10.0,NE,20.7,-,N/A,,Overcast,50,2013-12-19 22:14:00
4:34 PM,10.4,6.8,85,30.03,10.0,ENE,13.8,20.7,N/A,,Overcast,60,2013-12-19 22:34:00
4:54 PM,10.4,6.8,85,30.05,10.0,NE,13.8,19.6,N/A,,Overcast,40,2013-12-19 22:54:00
5:14 PM,10.4,6.8,85,30.05,10.0,NE,13.8,20.7,N/A,,Overcast,40,2013-12-19 23:14:00
5:34 PM,12.2,6.8,79,30.05,10.0,NE,13.8,20.7,N/A,,Overcast,40,2013-12-19 23:34:00
5:54 PM,10.4,6.8,85,30.07,10.0,NNE,12.7,-,N/A,,Overcast,20,2013-12-19 23:54:00
6:14 PM,10.4,3.2,73,30.09,10.0,North,10.4,-,N/A,,Overcast,360,2013-12-20 00:14:00
6:34 PM,8.6,3.2,79,30.09,10.0,North,10.4,-,N/A,,Overcast,10,2013-12-20 00:34:00
6:54 PM,8.6,3.2,79,30.08,10.0,NNE,11.5,-,N/A,,Overcast,20,2013-12-20 00:54:00
7:14 PM,8.6,5.0,85,30.09,10.0,NNE,8.1,-,N/A,,Overcast,30,2013-12-20 01:14:00
7:34 PM,10.4,6.8,85,30.08,10.0,NE,12.7,-,N/A,,Overcast,50,2013-12-20 01:34:00
7:54 PM,10.4,6.8,85,30.07,10.0,NE,15.0,-,N/A,,Overcast,50,2013-12-20 01:54:00
8:14 PM,10.4,6.8,85,30.07,10.0,NE,12.7,20.7,N/A,,Overcast,50,2013-12-20 02:14:00
8:34 PM,10.4,6.8,85,30.06,10.0,NE,16.1,-,N/A,,Overcast,40,2013-12-20 02:34:00
8:54 PM,10.4,6.8,85,30.07,7.0,NE,15.0,-,N/A,Snow,Light Snow,50,2013-12-20 02:54:00
9:14 PM,10.4,8.6,92,30.07,2.0,NE,16.1,-,N/A,Snow,Light Snow,40,2013-12-20 03:14:00
9:34 PM,10.4,6.8,85,30.08,1.8,NE,12.7,-,N/A,Snow,Light Snow,40,2013-12-20 03:34:00
9:54 PM,10.4,6.8,85,30.08,1.8,NE,11.5,-,N/A,Snow,Light Snow,40,2013-12-20 03:54:00
10:14 PM,10.4,6.8,85,30.08,2.5,NNE,9.2,-,N/A,Snow,Light Snow,30,2013-12-20 04:14:00
10:34 PM,10.4,6.8,85,30.07,3.0,NE,12.7,-,N/A,Snow,Light Snow,40,2013-12-20 04:34:00
10:54 PM,10.4,6.8,85,30.08,3.0,NNE,8.1,-,N/A,Snow,Light Snow,30,2013-12-20 04:54:00
11:14 PM,10.4,6.8,85,30.07,3.0,NNE,10.4,-,N/A,Snow,Light Snow,20,2013-12-20 05:14:00
11:34 PM,10.4,6.8,85,30.07,3.0,NNE,10.4,-,N/A,Snow,Light Snow,20,2013-12-20 05:34:00
11:54 PM,10.4,6.8,85,30.07,4.0,NNE,9.2,-,N/A,Snow,Light Snow,30,2013-12-20 05:54:00